Hourly Data Report for June 06, 2021

CARIBOU POINT (AUT)
NOVA SCOTIA
Current Station Operator: ECCC - MSC

45°46'00.000" N
62°41'00.000" W
2.40 m
8200774
71415
WBK

Download Data

Hourly Data (June 2021)
Hourly Data Report for June 6, 2021
TIME
LST
Temp Definition
°C
Dew Point Definition
°C
Rel Hum Definition
%
Precip. Amount Definition
mm

Wind Dir Definition
10's deg

Wind Spd Definition
km/h
Visibility Definition
km
Stn Press Definition
kPa
Hmdx Definition


Wind Chill Definition


Weather Definition


00:00 18.6 14.2 75 0.0 21 12   100.44     LegendNANA
01:00 18.5 14.9 79 0.0 22 12   100.45     LegendNANA
02:00 18.5 14.7 79 0.0 23 12   100.47     LegendNANA
03:00 18.0 14.7 81 0.0 21 9   100.52     LegendNANA
04:00 18.7 15.7 83 0.0 26 10   100.55     LegendNANA
05:00 14.6 13.2 91 0.0 31 20   100.68     LegendNANA
06:00 15.0 13.4 90 0.0 29 26   100.82     LegendNANA
07:00 14.7 13.1 90 0.0 29 17   100.99     LegendNANA
08:00 14.8 12.7 87 0.0 30 17   101.08     LegendNANA
09:00 15.1 12.4 84 0.0 29 16   101.18     LegendNANA
10:00 15.4 12.6 84 0.0 30 16   101.27     LegendNANA
11:00 15.4 12.2 81 0.0 33 15   101.38     LegendNANA
12:00 15.9 12.4 80 0.0 12 9   101.40     LegendNANA
13:00 15.5 11.5 77 0.0 10 14   101.45     LegendNANA
14:00 15.1 10.7 75 0.0 11 14   101.50     LegendNANA
15:00 14.3 10.1 76 0.0 12 15   101.51     LegendNANA
16:00 14.4 10.5 77 0.0 11 13   101.53     LegendNANA
17:00 14.4 10.6 78 0.0 10 13   101.56     LegendNANA
18:00 13.6 10.1 79 0.0 11 16   101.59     LegendNANA
19:00 12.9 9.9 82 0.0 10 19   101.61     LegendNANA
20:00 12.7 10.4 86 0.0 11 18   101.60     LegendNANA
21:00 12.8 10.3 85 0.0 13 10   101.64     LegendNANA
22:00 12.7 10.7 88 0.0 12 10   101.63     LegendNANA
23:00 12.8 11.4 91 0.0 14 11   101.63     LegendNANA

Notes on Data Quality.

Legend

  • E = Estimated
  • M = Missing
  • NA = Not Available*
  • [empty] = Indicates an unobserved value
Date modified: